User: anonymous
Location: Ostrava
(49.8330°N, 18.2830°E)
Time: 10:13:24
(UTC+02:00)
Language:

Explorer 7 - Orbit

View from above orbital plane
View from above orbital plane
View from above satellite
View from above satellite

Ground track
Ground track

The orbit data is extracted from the following two-line orbital elements,

1 00022U 59009A   14107.13512426  .00003717  00000-0  33725-3 0  8826
2 00022 050.2849 207.2398 0156069 312.0548 046.7205 14.88789471888550
Epoch (UTC): 17 April 2014 03:14:34
Eccentricity: 0.0156069
inclination: 50.2849°
perigee height: 493 km
apogee height: 710 km
right ascension of ascending node: 207.2398°
argument of perigee: 312.0548°
revolutions per day: 14.88789471
mean anomaly at epoch: 46.7205°
orbit number at epoch: 88855

The dashed part of the orbit path shows where the satellite is in the earth's shadow,  

DLR